Location: Cowley
(49.5667°N, 114.0667°W)
Time: 10:00:16
(UTC+00:00)

Envisat - Pass Details

Date: 10 December 2021
Orbit: 764 x 766 km, 98.2° (Epoch: 23 January)

Event Time Altitude Azimuth Distance (km) Brightness Sun altitude
Rises 13:27:31 0° 9° (N) 3,246 6.2 -17.5°
Reaches altitude 10° 13:29:54 10° 3° (N) 2,315 5.4 -17.2°
Maximum altitude 13:34:44 44° 293° (WNW) 1,053 3.2 -16.4°
Drops below altitude 10° 13:39:31 10° 222° (SW) 2,299 5.2 -15.7°
Sets 13:41:53 0° 216° (SW) 3,220 6.0 -15.3°
